158  
ASUS44 KSHV 150510  
RWRSHV  
 
WEATHER ROUNDUP FOR THE FOUR STATE AREA  
NATIONAL WEATHER SERVICE SHREVEPORT LA  
1200 AM CDT SUN SEP 15 2019  
 
NOTE: "FAIR" INDICATES FEW OR NO CLOUDS BELOW 12000 FEET  
WITH NO SIGNIFICANT WEATHER AND/OR S TO VISIBILITY
.  
 
!LAZ001-LAZ014-TXZ097-150600  
SHREVEPORT...MONROE...TEXARKANA RADIOS  
 
CITY SKY/WX TMP DP RH WIND PRES REMARKS
 
SHREVEPORT PTCLDY 83 67 58 E3 30.08R  
MONROE N/A 78 70 76 CALM 30.10S  
NATCHITOCHES N/A 73 69 88 CALM 30.09R  
TEXARKANA CLEAR 75 66 73 CALM 30.11S  

 
 
!LAZ001-LAZ014-TXZ097-150600  
OTHER LOCATIONS...  
 
CITY SKY/WX TMP DP RH WIND PRES REMARKS
 
DOWNTOWN SHV CLEAR 83 68 60 NE3 30.09R  
BOSSIER CITY N/A 81 67 62 NE5 30.08R  
RUSTON N/A 75 69 82 CALM 30.13S  
LITTLE ROCK CLEAR 76 67 73 NE5 30.13F  
EL DORADO NOT AVBL  
JACKSON N/A 79 67 66 NE6 30.10S  
NEW ORLEANS N/A 83 72 69 E3 30.05F  
HOUSTON CLEAR 76 71 85 CALM 30.05S  
LUFKIN CLEAR 76 68 76 CALM 30.08R  
TYLER PTCLDY 84 63 49 E5 30.08F  
DAL FT WORTH CLEAR 83 64 52 E7 30.07S  

 
 
!TXZ136-TXZ165-150600  
TYLER...LUFKIN RADIOS  
 
CITY SKY/WX TMP DP RH WIND PRES REMARKS
 
TYLER PTCLDY 84 63 49 E5 30.08F  
GILMER CLEAR 78 67 69 CALM 30.10S  
LONGVIEW CLEAR 81 69 67 CALM 30.08R  
LUFKIN CLEAR 76 68 76 CALM 30.08R  

 
 
!TXZ136-TXZ165-150600  
OTHER LOCATIONS...  
 
CITY SKY/WX TMP DP RH WIND PRES REMARKS
 
NACOGDOCHES N/A N/A N/A N/A MISG N/A  
BEAUMONT N/A 78 74 87 CALM 30.05S  
HOUSTON CLEAR 76 71 85 CALM 30.05S  
COLLEGE STN CLEAR 81 66 60 CALM 30.07S  
AUSTIN PTCLDY 79 65 62 S7 30.07S  
DAL FT WORTH CLEAR 83 64 52 E7 30.07S  
TEXARKANA CLEAR 75 66 73 CALM 30.11S  
SHREVEPORT PTCLDY 83 67 58 E3 30.08R  
FORT POLK N/A 77 64 64 CALM 30.07S  
LAKE CHARLES N/A 77 74 90 CALM 30.06S  

 
 
 
CLICK HERE TO GO TO PREVIOUS BULLETINS.

The Nexlab LA Page
The Nexlab TX Page
The Nexlab AR Page
The Nexlab OK Page Main Text Page